This demonstration page uses our WeatherBlox Daily Observations layout. Learn more.

Left ArrowRight Arrow

Hourly Observations for July 15, 2020

Temp ( °F °C ) Dew Point ( °F °C ) Humidity (%) Winds ( mph kmh ) Pressure ( in mb ) Visibility ( mi km ) Precip ( " mm )
12:15 am 00:15 Clear 68 20 63 17 83 83 Calm 30.1 1019 10 16.0934 0 0
12:55 am 00:55 Clear 66 19 63 17 88 88 W 3 6 30.1 1019 10 16.0934 0 0
1:15 am 01:15 Clear 66 19 63 17 88 88 W 3 6 30.1 1019 10 16.0934 0 0
1:35 am 01:35 Clear 68 20 61 16 78 78 W 3 6 30.1 1019 10 16.0934 0 0
1:55 am 01:55 Clear 66 19 61 16 83 83 W 3 6 30.09 1019 10 16.0934 0 0
2:15 am 02:15 Clear 68 20 61 16 78 78 W 3 6 30.09 1019 10 16.0934 0 0
2:35 am 02:35 Clear 66 19 61 16 83 83 Calm 30.09 1019 10 16.0934 0 0
2:55 am 02:55 Clear 66 19 61 16 83 83 Calm 30.09 1019 10 16.0934 0 0
3:15 am 03:15 Clear 66 19 61 16 83 83 Calm 30.1 1019 10 16.0934 0 0
3:35 am 03:35 Clear 64 18 61 16 88 88 Calm 30.11 1020 10 16.0934 0 0
3:55 am 03:55 Clear 64 18 61 16 88 88 Calm 30.11 1020 10 16.0934 0 0
4:15 am 04:15 Clear 64 18 61 16 88 88 WSW 3 6 30.12 1020 10 16.0934 0 0
4:35 am 04:35 Clear 64 18 61 16 88 88 W 3 6 30.12 1020 10 16.0934 0 0
4:55 am 04:55 Clear 63 17 61 16 94 94 Calm 30.14 1021 10 16.0934 0 0
5:15 am 05:15 Clear 63 17 61 16 94 94 NW 3 6 30.14 1021 10 16.0934 0 0
5:35 am 05:35 Clear 64 18 61 16 88 88 Calm 30.12 1020 10 16.0934 0 0
5:55 am 05:55 Clear 64 18 61 16 88 88 Calm 30.12 1020 10 16.0934 0 0
6:15 am 06:15 Sunny 64 18 61 16 88 88 Calm 30.12 1020 10 16.0934 0 0
6:35 am 06:35 Sunny 64 18 61 16 88 88 Calm 30.13 1020 10 16.0934 0 0
6:55 am 06:55 Sunny 64 18 61 16 88 88 Calm 30.14 1021 10 16.0934 0 0
7:15 am 07:15 Mostly Cloudy 66 19 63 17 88 88 Calm 30.14 1021 10 16.0934 0 0
7:35 am 07:35 Partly Cloudy 70 21 63 17 78 78 Calm 30.15 1021 10 16.0934 0 0
7:55 am 07:55 Sunny 72 22 63 17 73 73 Calm 30.14 1021 10 16.0934 0 0
8:15 am 08:15 Sunny 72 22 63 17 73 73 Calm 30.15 1021 10 16.0934 0 0
8:35 am 08:35 Sunny 73 23 64 18 74 74 Calm 30.15 1021 10 16.0934 0 0
8:55 am 08:55 Sunny 77 25 63 17 61 61 N 5 7 30.14 1021 10 16.0934 0 0
9:15 am 09:15 Partly Cloudy 77 25 63 17 61 61 Calm 30.14 1021 10 16.0934 0 0
9:35 am 09:35 Mostly Cloudy 79 26 63 17 58 58 Calm 30.14 1021 10 16.0934 0 0
9:55 am 09:55 Sunny 79 26 63 17 58 58 Calm 30.14 1021 10 16.0934 0 0
10:15 am 10:15 Partly Cloudy 81 27 63 17 54 54 Calm 30.14 1021 10 16.0934 0 0
10:35 am 10:35 Mostly Cloudy 81 27 63 17 54 54 Calm 30.14 1021 10 16.0934 0 0
10:55 am 10:55 Mostly Cloudy 81 27 63 17 54 54 Calm 30.15 1021 10 16.0934 0 0
11:15 am 11:15 Partly Cloudy 82 28 63 17 51 51 Calm 30.15 1021 10 16.0934 0 0
11:35 am 11:35 Sunny 84 29 63 17 48 48 Calm 30.15 1021 10 16.0934 0 0
11:55 am 11:55 Partly Cloudy 86 30 61 16 43 43 Calm 30.16 1021 10 16.0934 0 0
12:15 pm 12:15 Partly Cloudy 86 30 63 17 46 46 N 3 6 30.16 1021 10 16.0934 0 0
12:35 pm 12:35 Partly Cloudy 86 30 61 16 43 43 WSW 5 7 30.16 1021 10 16.0934 0 0
12:55 pm 12:55 Partly Cloudy 88 31 61 16 40 40 SSW 5 7 30.16 1021 N/A 0 0
1:15 pm 13:15 Partly Cloudy 88 31 61 16 40 40 E 5 7 30.15 1021 10 16.0934 0 0
1:35 pm 13:35 Sunny 88 31 61 16 40 40 Calm 30.14 1021 10 16.0934 0 0
1:55 pm 13:55 Partly Cloudy 90 32 61 16 38 38 Calm 30.14 1020 10 16.0934 0 0
2:15 pm 14:15 Sunny 90 32 61 16 38 38 SSE 5 7 30.13 1020 10 16.0934 0 0
2:35 pm 14:35 Sunny 90 32 61 16 38 38 Calm 30.13 1020 10 16.0934 0 0
2:55 pm 14:55 Partly Cloudy 90 32 61 16 38 38 SE 6 9 30.13 1020 10 16.0934 0 0
3:15 pm 15:15 Partly Cloudy 90 32 61 16 38 38 Calm 30.12 1020 10 16.0934 0 0
3:35 pm 15:35 Mostly Cloudy 90 32 61 16 38 38 SE 5 7 30.12 1020 10 16.0934 0 0
3:55 pm 15:55 Partly Cloudy 90 32 61 16 38 38 S 3 6 30.12 1020 10 16.0934 0 0
4:15 pm 16:15 Partly Cloudy 90 32 61 16 38 38 ESE 8 13 30.12 1020 10 16.0934 0 0
4:35 pm 16:35 Partly Cloudy 90 32 61 16 38 38 NE 3 6 30.11 1019 10 16.0934 0 0
4:55 pm 16:55 Partly Cloudy 91 33 63 17 38 38 ESE 5 7 30.1 1019 10 16.0934 0 0
5:15 pm 17:15 Partly Cloudy 90 32 61 16 38 38 S 6 9 30.1 1019 10 16.0934 0 0
5:35 pm 17:35 Partly Cloudy 90 32 61 16 38 38 ENE 5 7 30.1 1019 10 16.0934 0 0
5:55 pm 17:55 Mostly Cloudy 90 32 63 17 41 41 ENE 5 7 30.1 1019 10 16.0934 0 0
6:15 pm 18:15 Mostly Cloudy 90 32 63 17 41 41 ENE 7 11 30.1 1019 10 16.0934 0 0
6:35 pm 18:35 Partly Cloudy 90 32 63 17 41 41 ESE 8 13 30.1 1019 10 16.0934 0 0
6:55 pm 18:55 Sunny 88 31 64 18 46 46 E 8 13 30.1 1019 10 16.0934 0 0
7:15 pm 19:15 Sunny 88 31 64 18 46 46 ESE 12 19 30.1 1019 10 16.0934 0 0
7:35 pm 19:35 Sunny 86 30 66 19 52 52 ESE 12 19 30.1 1019 10 16.0934 0 0
7:55 pm 19:55 Sunny 86 30 66 19 52 52 SE 8 13 30.11 1020 10 16.0934 0 0
8:15 pm 20:15 Sunny 86 30 66 19 52 52 SE 10 17 30.11 1020 10 16.0934 0 0
8:35 pm 20:35 Sunny 86 30 66 19 52 52 SE 8 13 30.11 1020 10 16.0934 0 0
8:55 pm 20:55 Clear 84 29 66 19 55 55 SSE 9 15 30.11 1020 10 16.0934 0 0
9:15 pm 21:15 Partly Cloudy 82 28 64 18 55 55 SSE 12 19 30.12 1020 10 16.0934 0 0
9:35 pm 21:35 Cloudy 82 28 64 18 55 55 SSE 12 19 30.12 1020 10 16.0934 0 0
9:55 pm 21:55 Mostly Cloudy 82 28 64 18 55 55 SSE 9 15 30.12 1020 10 16.0934 0 0
10:15 pm 22:15 Mostly Cloudy 82 28 64 18 55 55 SSE 8 13 30.12 1020 10 16.0934 0 0
10:35 pm 22:35 Partly Cloudy 81 27 66 19 62 62 SE 7 11 30.13 1020 10 16.0934 0 0
10:55 pm 22:55 Clear 81 27 68 20 66 66 SE 13 20 30.13 1020 10 16.0934 0 0
11:15 pm 23:15 Mostly Cloudy 81 27 68 20 66 66 SE 12 19 30.15 1021 10 16.0934 0 0
11:35 pm 23:35 Partly Cloudy 79 26 68 20 70 70 SSE 12 19 30.15 1021 10 16.0934 0 0
11:55 pm 23:55 Partly Cloudy 79 26 70 21 74 74 SSE 10 17 30.16 1021 10 16.0934 0 0

Powered by AerisWeather